Location: Bintulu
(3.1667°N, 113.0333°E)
Time: 03:41:47
(UTC+00:00)

GEOS 3 Rocket - Pass Details

Date: 13 December 2025
Orbit: 769 x 845 km, 115.0° (Epoch: 21 January)

Event Time Altitude Azimuth Distance (km) Brightness Sun altitude
Rises 20:03:32 0° 153° (SSE) 3,241 7.4 -33.0°
Reaches altitude 10° 20:05:47 10° 153° (SSE) 2,318 6.5 -32.5°
Enters shadow 20:09:11 45° 156° (SSE) 1,059 4.4 -31.7°
